Вернуться в каталог

STARLINK-5068

АктивенСвязьVLEO
NORAD 55423·PAYLOAD·🇺🇸 United States

Запущен Jan 31, 2023 с Vandenberg Space Force Base

Loading…

Ближайшие Пролёты (ближайшие 24 часа)

TLE

СвежийSource: CelesTrak SupGP

Эпоха: Sep 14, 2026, 21:35 UTC

1 55423C 23014AJ  26257.89979167 -.00029413  00000+0 -24657-2 0  2570
2 55423  70.0008 327.4763 0003467 270.1452  27.4953 14.98333184    14

Отслеживайте STARLINK-5068 в реальном времени с AllMySat

Download on the App Store